Location: Warszawa
(52.2500°N, 21.0000°E)
Time: 14:13:19
(UTC+01:00)

Vanguard 2 - Pass Details

Date: 11 February 2023
Orbit: 553 x 2927 km, 32.9° (Epoch: 24 March)

Event Time Altitude Azimuth Distance (km) Brightness Sun altitude
Rises 02:00:04 0° 266° (W) 6,279 - -44.0°
Reaches altitude 10° 02:07:23 10° 245° (WSW) 5,589 - -43.1°
Maximum altitude 02:14:16 14° 221° (SW) 5,413 - -42.3°
Drops below altitude 10° 02:21:20 10° 197° (SSW) 5,729 - -41.5°
Sets 02:29:12 0° 176° (S) 6,547 - -40.5°
